| time (UTC) | temp F | wind direction | speed MPH | gust MPH | rain 1hr in | rain 24hr in | rain mn in | humidity % | barometer mb |
| 20260507024627 | 64 | 270 | 1.0 | 4.0 | 0.00 | 0.00 | 0.00 | 52 | 1011.9 |
| 20260507023626 | 65 | 166 | 0.0 | 4.0 | 0.00 | 0.00 | 0.00 | 52 | 1011.9 |
| 20260507022625 | 65 | 85 | 2.0 | 4.0 | 0.00 | 0.00 | 0.00 | 52 | 1011.5 |
| 20260507021624 | 65 | 255 | 1.0 | 4.0 | 0.00 | 0.00 | 0.00 | 52 | 1011.5 |
| 20260507020623 | 65 | 215 | 1.0 | 4.0 | 0.00 | 0.00 | 0.00 | 52 | 1011.9 |
| 20260507015622 | 64 | 257 | 1.0 | 4.0 | 0.00 | 0.00 | 0.00 | 52 | 1011.5 |
| 20260507014621 | 65 | 184 | 2.0 | 3.0 | 0.00 | 0.00 | 0.00 | 52 | 1011.5 |
| 20260507013620 | 64 | 265 | 1.0 | 1.0 | 0.00 | 0.00 | 0.00 | 52 | 1011.5 |
| 20260507012548 | 64 | 198 | 1.0 | 2.0 | 0.00 | 0.00 | 0.00 | 52 | 1011.5 |
| 20260507011547 | 65 | 302 | 2.0 | 4.0 | 0.00 | 0.00 | 0.00 | 52 | 1011.5 |
| 20260507010546 | 65 | 344 | 2.0 | 5.0 | 0.00 | 0.00 | 0.00 | 51 | 1011.5 |
| 20260507005545 | 65 | 300 | 1.0 | 4.0 | 0.00 | 0.00 | 0.00 | 50 | 1011.5 |
| 20260507004544 | 65 | 350 | 1.0 | 4.0 | 0.00 | 0.00 | 0.00 | 50 | 1011.2 |
| 20260507003543 | 65 | 221 | 0.0 | 4.0 | 0.00 | 0.00 | 0.00 | 49 | 1011.2 |
| 20260507002511 | 66 | 261 | 2.0 | 5.0 | 0.00 | 0.00 | 0.00 | 48 | 1011.2 |
| 20260507001510 | 66 | 51 | 0.0 | 5.0 | 0.00 | 0.00 | 0.00 | 48 | 1011.2 |
| 20260507000509 | 66 | 158 | 2.0 | 2.0 | 0.00 | 0.00 | 0.00 | 48 | 1011.2 |
| 20260506235437 | 65 | 201 | 0.0 | 2.0 | 0.00 | 0.00 | 0.00 | 47 | 1010.8 |
| 20260506234435 | 66 | 4 | 0.0 | 2.0 | 0.00 | 0.00 | 0.00 | 47 | 1010.8 |
| 20260506233435 | 65 | 279 | 1.0 | 2.0 | 0.00 | 0.00 | 0.00 | 47 | 1010.8 |
| 20260506232403 | 63 | 340 | 1.0 | 1.0 | 0.00 | 0.00 | 0.00 | 49 | 1010.8 |
| 20260506231300 | 63 | 165 | 0.0 | 0.0 | 0.00 | 0.00 | 0.00 | 50 | 1010.5 |
| 20260506230259 | 62 | 165 | 0.0 | 0.0 | 0.00 | 0.00 | 0.00 | 50 | 1010.5 |
| 20260506225258 | 62 | 86 | 0.0 | 0.0 | 0.00 | 0.00 | 0.00 | 50 | 1010.5 |
| 20260506224257 | 62 | 104 | 0.0 | 0.0 | 0.00 | 0.00 | 0.00 | 51 | 1010.5 |
| 20260506223256 | 63 | 104 | 0.0 | 0.0 | 0.00 | 0.00 | 0.00 | 50 | 1010.5 |
| 20260506222224 | 63 | 104 | 0.0 | 0.0 | 0.00 | 0.00 | 0.00 | 49 | 1010.5 |
| 20260506221223 | 64 | 104 | 0.0 | 0.0 | 0.00 | 0.00 | 0.00 | 47 | 1010.5 |
| 20260506220222 | 65 | 77 | 0.0 | 0.0 | 0.00 | 0.00 | 0.00 | 45 | 1010.2 |
| 20260506215220 | 65 | 77 | 0.0 | 0.0 | 0.00 | 0.00 | 0.00 | 43 | 1010.2 |
| 20260506214219 | 66 | 77 | 0.0 | 0.0 | 0.00 | 0.00 | 0.00 | 42 | 1010.2 |
| 20260506213218 | 66 | 77 | 0.0 | 0.0 | 0.00 | 0.00 | 0.00 | 42 | 1010.2 |
| 20260506212217 | 66 | 77 | 0.0 | 0.0 | 0.00 | 0.00 | 0.00 | 42 | 1010.2 |
| 20260506211144 | 66 | 76 | 0.0 | 0.0 | 0.00 | 0.00 | 0.00 | 42 | 1010.2 |
| 20260506210143 | 66 | 77 | 0.0 | 0.0 | 0.00 | 0.00 | 0.00 | 42 | 1009.8 |
| 20260506205142 | 66 | 77 | 0.0 | 0.0 | 0.00 | 0.00 | 0.00 | 42 | 1009.8 |
| 20260506204141 | 66 | 163 | 0.0 | 0.0 | 0.00 | 0.00 | 0.00 | 42 | 1009.8 |
| 20260506203140 | 66 | 163 | 0.0 | 0.0 | 0.00 | 0.00 | 0.00 | 42 | 1009.8 |
| 20260506202139 | 66 | 162 | 0.0 | 0.0 | 0.00 | 0.00 | 0.00 | 42 | 1009.8 |
| 20260506201138 | 66 | 162 | 0.0 | 0.0 | 0.00 | 0.00 | 0.00 | 41 | 1009.8 |
| 20260506200137 | 67 | 162 | 0.0 | 0.0 | 0.00 | 0.00 | 0.00 | 40 | 1009.8 |
| 20260506195136 | 68 | 162 | 0.0 | 0.0 | 0.00 | 0.00 | 0.00 | 39 | 1009.8 |
| 20260506194135 | 69 | 162 | 0.0 | 1.0 | 0.00 | 0.00 | 0.00 | 38 | 1009.8 |
| 20260506193135 | 70 | 162 | 0.0 | 1.0 | 0.00 | 0.00 | 0.00 | 37 | 1009.8 |
| 20260506192133 | 70 | 153 | 0.0 | 0.0 | 0.00 | 0.00 | 0.00 | 36 | 1009.8 |
| 20260506191132 | 71 | 150 | 0.0 | 0.0 | 0.00 | 0.00 | 0.00 | 36 | 1009.8 |
| 20260506190131 | 71 | 149 | 0.0 | 1.0 | 0.00 | 0.00 | 0.00 | 36 | 1009.8 |
| 20260506185059 | 72 | 150 | 0.0 | 1.0 | 0.00 | 0.00 | 0.00 | 35 | 1009.5 |
| 20260506184058 | 72 | 173 | 1.0 | 1.0 | 0.00 | 0.00 | 0.00 | 35 | 1009.5 |
| 20260506183058 | 72 | 136 | 0.0 | 1.0 | 0.00 | 0.00 | 0.00 | 35 | 1009.5 |
| 20260506182057 | 73 | 151 | 0.0 | 1.0 | 0.00 | 0.00 | 0.00 | 34 | 1009.1 |
| 20260506181056 | 73 | 195 | 0.0 | 0.0 | 0.00 | 0.00 | 0.00 | 34 | 1009.1 |
| 20260506180046 | 74 | 176 | 0.0 | 1.0 | 0.00 | 0.00 | 0.00 | 33 | 1009.1 |
| 20260506175013 | 75 | 257 | 1.0 | 1.0 | 0.00 | 0.00 | 0.00 | 33 | 1009.1 |
| 20260506173910 | 75 | 240 | 1.0 | 1.0 | 0.00 | 0.00 | 0.00 | 31 | 1009.1 |
| 20260506172909 | 76 | 200 | 0.0 | 1.0 | 0.00 | 0.00 | 0.00 | 31 | 1008.8 |
| 20260506171908 | 77 | 176 | 0.0 | 6.0 | 0.00 | 0.00 | 0.00 | 30 | 1008.8 |
| 20260506170907 | 77 | 133 | 0.0 | 6.0 | 0.00 | 0.00 | 0.00 | 30 | 1008.8 |
| 20260506165804 | 78 | 148 | 0.0 | 2.0 | 0.00 | 0.00 | 0.00 | 29 | 1008.5 |
| 20260506164803 | 79 | 192 | 1.0 | 2.0 | 0.00 | 0.00 | 0.00 | 29 | 1008.5 |
| 20260506163801 | 80 | 252 | 1.0 | 3.0 | 0.00 | 0.00 | 0.00 | 28 | 1008.5 |
| 20260506162800 | 81 | 223 | 1.0 | 3.0 | 0.00 | 0.00 | 0.00 | 27 | 1008.5 |
| 20260506161727 | 82 | 212 | 1.0 | 3.0 | 0.00 | 0.00 | 0.00 | 26 | 1008.5 |
| 20260506160725 | 84 | 276 | 0.0 | 4.0 | 0.00 | 0.00 | 0.00 | 25 | 1008.5 |
| 20260506155724 | 85 | 154 | 2.0 | 4.0 | 0.00 | 0.00 | 0.00 | 25 | 1008.5 |
| 20260506154723 | 86 | 139 | 2.0 | 4.0 | 0.00 | 0.00 | 0.00 | 24 | 1008.5 |
| 20260506153721 | 87 | 207 | 1.0 | 6.0 | 0.00 | 0.00 | 0.00 | 23 | 1008.5 |
| 20260506152720 | 88 | 184 | 2.0 | 4.0 | 0.00 | 0.00 | 0.00 | 22 | 1008.5 |
| 20260506151649 | 87 | 103 | 1.0 | 4.0 | 0.00 | 0.00 | 0.00 | 23 | 1008.5 |
| 20260506150648 | 88 | 280 | 1.0 | 6.0 | 0.00 | 0.00 | 0.00 | 22 | 1008.5 |
| 20260506145647 | 88 | 120 | 1.0 | 6.0 | 0.00 | 0.00 | 0.00 | 22 | 1008.5 |
| 20260506144646 | 89 | 262 | 2.0 | 5.0 | 0.00 | 0.00 | 0.00 | 21 | 1008.5 |
| 20260506143645 | 88 | 233 | 2.0 | 6.0 | 0.00 | 0.00 | 0.00 | 23 | 1008.5 |
| 20260506142644 | 90 | 198 | 2.0 | 6.0 | 0.00 | 0.00 | 0.00 | 21 | 1008.5 |
| 20260506141632 | 90 | 221 | 2.0 | 7.0 | 0.00 | 0.00 | 0.00 | 23 | 1008.5 |
| 20260506140630 | 89 | 186 | 1.0 | 7.0 | 0.00 | 0.00 | 0.00 | 23 | 1008.5 |
| 20260506135629 | 89 | 170 | 1.0 | 4.0 | 0.00 | 0.00 | 0.00 | 22 | 1008.5 |
| 20260506134628 | 89 | 207 | 1.0 | 4.0 | 0.00 | 0.00 | 0.00 | 23 | 1008.5 |
| 20260506133625 | 88 | 110 | 2.0 | 4.0 | 0.00 | 0.00 | 0.00 | 22 | 1008.5 |
| 20260506132624 | 88 | 213 | 2.0 | 10.0 | 0.00 | 0.00 | 0.00 | 22 | 1008.5 |
| 20260506131623 | 88 | 171 | 2.0 | 10.0 | 0.00 | 0.00 | 0.00 | 22 | 1008.8 |
| 20260506130621 | 89 | 217 | 2.0 | 5.0 | 0.00 | 0.00 | 0.00 | 22 | 1008.8 |
| 20260506125620 | 89 | 274 | 0.0 | 5.0 | 0.00 | 0.00 | 0.00 | 22 | 1008.8 |
| 20260506124619 | 88 | 184 | 1.0 | 4.0 | 0.00 | 0.00 | 0.00 | 22 | 1008.8 |
| 20260506123618 | 88 | 333 | 2.0 | 6.0 | 0.00 | 0.00 | 0.00 | 20 | 1008.8 |
| 20260506121421 | 90 | 274 | 1.0 | 4.0 | 0.00 | 0.00 | 0.00 | 20 | 1009.1 |
| 20260506120420 | 89 | 160 | 1.0 | 3.0 | 0.00 | 0.00 | 0.00 | 21 | 1009.1 |
| 20260506115418 | 89 | 286 | 1.0 | 5.0 | 0.00 | 0.00 | 0.00 | 22 | 1009.1 |
| 20260506114417 | 89 | 193 | 1.0 | 5.0 | 0.00 | 0.00 | 0.00 | 21 | 1009.5 |
| 20260506113319 | 89 | 223 | 2.0 | 5.0 | 0.00 | 0.00 | 0.00 | 20 | 1009.5 |
| 20260506112316 | 89 | 205 | 1.0 | 3.0 | 0.00 | 0.00 | 0.00 | 23 | 1009.5 |
| 20260506111315 | 89 | 125 | 1.0 | 2.0 | 0.00 | 0.00 | 0.00 | 22 | 1009.5 |
| 20260506110310 | 89 | 287 | 1.0 | 3.0 | 0.00 | 0.00 | 0.00 | 21 | 1009.8 |
| 20260506105308 | 88 | 311 | 2.0 | 3.0 | 0.00 | 0.00 | 0.00 | 22 | 1009.8 |
| 20260506104305 | 88 | 188 | 2.0 | 4.0 | 0.00 | 0.00 | 0.00 | 24 | 1009.8 |
| 20260506103304 | 88 | 198 | 1.0 | 3.0 | 0.00 | 0.00 | 0.00 | 23 | 1009.8 |
| 20260506102245 | 88 | 128 | 1.0 | 3.0 | 0.00 | 0.00 | 0.00 | 23 | 1009.8 |
| 20260506101245 | 88 | 267 | 1.0 | 3.0 | 0.00 | 0.00 | 0.00 | 24 | 1009.8 |
| 20260506100244 | 87 | 18 | 1.0 | 2.0 | 0.00 | 0.00 | 0.00 | 26 | 1009.8 |
| 20260506095243 | 87 | 268 | 1.0 | 5.0 | 0.00 | 0.00 | 0.00 | 27 | 1009.8 |
| 20260506093216 | 86 | 80 | 1.0 | 4.0 | 0.00 | 0.00 | 0.00 | 29 | 1010.2 |
| 20260506092214 | 86 | 226 | 1.0 | 3.0 | 0.00 | 0.00 | 0.00 | 30 | 1010.2 |
| 20260506091213 | 86 | 106 | 1.0 | 2.0 | 0.00 | 0.00 | 0.00 | 28 | 1010.2 |
| 20260506090212 | 85 | 201 | 1.0 | 2.0 | 0.00 | 0.00 | 0.00 | 31 | 1010.2 |
| 20260506085211 | 86 | 195 | 1.0 | 2.0 | 0.00 | 0.00 | 0.00 | 29 | 1010.2 |
| 20260506084210 | 85 | 214 | 0.0 | 2.0 | 0.00 | 0.00 | 0.00 | 29 | 1010.2 |
| 20260506083209 | 84 | 259 | 1.0 | 2.0 | 0.00 | 0.00 | 0.00 | 30 | 1010.2 |
| 20260506082137 | 83 | 287 | 1.0 | 2.0 | 0.00 | 0.00 | 0.00 | 34 | 1010.2 |
| 20260506081104 | 83 | 215 | 1.0 | 2.0 | 0.00 | 0.00 | 0.00 | 33 | 1010.2 |
| 20260506073035 | 80 | 142 | 1.0 | 2.0 | 0.00 | 0.00 | 0.00 | 35 | 1010.2 |
| 20260506072034 | 79 | 313 | 1.0 | 2.0 | 0.00 | 0.00 | 0.00 | 35 | 1010.2 |
| 20260506071033 | 78 | 88 | 1.0 | 2.0 | 0.00 | 0.00 | 0.00 | 36 | 1010.2 |
| 20260506061919 | 75 | 109 | 1.0 | 2.0 | 0.00 | 0.00 | 0.00 | 38 | 1010.2 |
| 20260506060913 | 74 | 139 | 0.0 | 1.0 | 0.00 | 0.00 | 0.00 | 40 | 1010.2 |
| 20260506050835 | 65 | 186 | 1.0 | 3.0 | 0.00 | 0.00 | 0.00 | 50 | 1009.8 |
| 20260506044833 | 63 | 145 | 1.0 | 2.0 | 0.00 | 0.00 | 0.00 | 50 | 1009.8 |
| 20260506043833 | 62 | 222 | 1.0 | 2.0 | 0.00 | 0.00 | 0.00 | 52 | 1009.8 |
| 20260506042832 | 61 | 250 | 0.0 | 3.0 | 0.00 | 0.00 | 0.00 | 53 | 1009.5 |
| 20260506041831 | 61 | 211 | 1.0 | 3.0 | 0.00 | 0.00 | 0.00 | 53 | 1009.5 |
| 20260506040828 | 61 | 211 | 1.0 | 3.0 | 0.00 | 0.00 | 0.00 | 54 | 1009.5 |
| 20260506035827 | 61 | 278 | 2.0 | 5.0 | 0.00 | 0.00 | 0.00 | 54 | 1009.5 |
| 20260506034826 | 61 | 55 | 1.0 | 5.0 | 0.00 | 0.00 | 0.00 | 54 | 1009.5 |
| 20260506033825 | 61 | 246 | 1.0 | 4.0 | 0.00 | 0.00 | 0.00 | 53 | 1009.5 |
| 20260506032824 | 61 | 168 | 1.0 | 4.0 | 0.00 | 0.00 | 0.00 | 53 | 1009.5 |
| 20260506031823 | 60 | 241 | 2.0 | 4.0 | 0.00 | 0.00 | 0.00 | 54 | 1009.5 |
| 20260506030750 | 60 | 196 | 1.0 | 3.0 | 0.00 | 0.00 | 0.00 | 56 | 1009.5 |
| 20260506025749 | 60 | 153 | 1.0 | 4.0 | 0.00 | 0.00 | 0.00 | 56 | 1009.5 |